Мадрид, метеограме

Мадрид: време по сату
Понедељак, 18 Jануара
Време Падавине Температура Осећа се Притисак Влажност Ветар
15:00 0 мм +4.9° +5.2° 711.000 мм.ж.с 96% 1 м/с, СИ
16:00 0 мм +4° +4.1° 711.000 мм.ж.с 93% 1 м/с, СИ
17:00 0 мм +3° +3.1° 711.000 мм.ж.с 91% 0 м/с, СИ
18:00 0 мм +2.1° +2.1° 711.000 мм.ж.с 88% 0 м/с, СИ
19:00 0 мм +1.9° +1.9° 712.000 мм.ж.с 87% 1 м/с, СИ
20:00 0 мм +1.8° +1.7° 712.000 мм.ж.с 86% 1 м/с, СИ
21:00 0 мм +1.6° +1.5° 712.000 мм.ж.с 86% 1 м/с, СИ
22:00 0 мм +1.4° +1.4° 712.000 мм.ж.с 85% 1 м/с, СИ
23:00 0 мм +1.3° +1.2° 712.000 мм.ж.с 85% 1 м/с, СИ
Уторак, 19 Jануара
Време Падавине Температура Осећа се Притисак Влажност Ветар
00:00 0 мм +1.1° +1° 712.000 мм.ж.с 85% 1 м/с, СИ
01:00 0 мм +0.9° +0.9° 712.000 мм.ж.с 85% 1 м/с, СИ
02:00 0 мм +0.8° +0.7° 711.000 мм.ж.с 85% 1 м/с, СИ
03:00 0 мм +0.6° +0.5° 711.000 мм.ж.с 86% 1 м/с, СИ
04:00 0 мм +0.5° +0.4° 711.000 мм.ж.с 86% 1 м/с, СИ
05:00 0 мм +0.4° +0.3° 711.000 мм.ж.с 86% 1 м/с, СИ
06:00 0 мм +0.3° +0.2° 711.000 мм.ж.с 86% 1 м/с, СИ
07:00 0 мм +0.7° +0.7° 711.000 мм.ж.с 86% 1 м/с, СИ
08:00 0 мм +1.2° +1.1° 711.000 мм.ж.с 86% 1 м/с, СИ
09:00 0 мм +1.7° +1.6° 711.000 мм.ж.с 86% 1 м/с, СИ
10:00 0 мм +2.6° +2.5° 710.000 мм.ж.с 84% 1 м/с, И
11:00 0 мм +3.5° +3.4° 710.000 мм.ж.с 83% 1 м/с, И
12:00 0 мм +4.4° +4.3° 710.000 мм.ж.с 81% 1 м/с, И
13:00 0 мм +4.7° +4.6° 709.000 мм.ж.с 81% 1 м/с, ЈИ
14:00 0 мм +4.9° +4.9° 709.000 мм.ж.с 81% 1 м/с, ЈИ
15:00 0 мм +5.2° +5.1° 708.000 мм.ж.с 82% 1 м/с, ЈИ
16:00 0 мм +4° +4° 708.000 мм.ж.с 84% 1 м/с, ЈИ
17:00 0 мм +2.9° +2.9° 708.000 мм.ж.с 87% 1 м/с, ЈИ
18:00 0 мм +1.7° +1.7° 708.000 мм.ж.с 89% 1 м/с, И
19:00 0 мм +1.7° +1.7° 708.000 мм.ж.с 89% 1 м/с, И
20:00 0 мм +1.7° +1.7° 707.000 мм.ж.с 89% 1 м/с, И
21:00 0 мм +1.7° +1.7° 707.000 мм.ж.с 89% 1 м/с, И
22:00 0 мм +1.6° +1.6° 707.000 мм.ж.с 89% 1 м/с, И
23:00 0 мм +1.5° +1.5° 706.000 мм.ж.с 89% 1 м/с, И
Среда, 20 Jануара
Време Падавине Температура Осећа се Притисак Влажност Ветар
00:00 0 мм +1.4° +1.3° 706.000 мм.ж.с 89% 1 м/с, ЈИ
01:00 0.01 мм +1.7° +1.8° 705.000 мм.ж.с 90% 1 м/с, ЈИ
02:00 0.01 мм +2.1° +2.1° 705.000 мм.ж.с 90% 1 м/с, ЈИ
03:00 0.01 мм +2.5° +2.5° 704.000 мм.ж.с 90% 2 м/с, Ј
04:00 0.04 мм +2.8° +2.8° 704.000 мм.ж.с 92% 2 м/с, Ј
05:00 0.04 мм +3° +3.1° 703.000 мм.ж.с 93% 3 м/с, Ј
06:00 0.04 мм +3.3° +3.4° 703.000 мм.ж.с 94% 3 м/с, Ј
07:00 0.59 мм +3.6° +3.7° 702.000 мм.ж.с 95% 4 м/с, Ј
08:00 0.59 мм +3.8° +4° 702.000 мм.ж.с 96% 4 м/с, Ј
09:00 0.59 мм +4.1° +4.4° 701.000 мм.ж.с 97% 5 м/с, Ј
10:00 0.71 мм +4.5° +4.8° 701.000 мм.ж.с 96% 5 м/с, Ј
11:00 0.71 мм +4.9° +5.2° 700.000 мм.ж.с 96% 5 м/с, Ј
12:00 0.71 мм +5.4° +5.6° 699.000 мм.ж.с 96% 5 м/с, Ј
13:00 0.36 мм +6° +6.3° 699.000 мм.ж.с 95% 5 м/с, Ј
14:00 0.36 мм +6.6° +6.9° 698.000 мм.ж.с 94% 5 м/с, Ј

Такође

Meteograms hourly weather Мапе времена Преглед времена
Meteograms hourly weather Мапе времена Преглед времена
 
Време у Србији:
О проjекту
© meteoprog.rs 2003-2021.
Meteoprog.ua - погода в Украине 0.0428
sitemap